Dallas, TX

1:25 PM CST on February 26, 2017 (GMT -0600)
Dallas-Fort Worth International

Weather History for KDFW - March, 2013

Change the Weather History Date:

Friday, March 29, 2013

  Actual Average Record
Temperature  
Mean Temperature 69 °F 61 °F  
Max Temperature 77 °F 72 °F 88 °F (1967)
Min Temperature 60 °F 50 °F 28 °F (1944)
Degree Days  
Heating Degree Days 0 6  
Month to date heating degree days 279 251  
Since 1 July heating degree days 1869 2183  
Cooling Degree Days 4 2  
Month to date cooling degree days 19 31  
Year to date cooling degree days 31 38  
Growing Degree Days 18 (Base 50)    
Moisture  
Dew Point 55 °F    
Average Humidity 65    
Maximum Humidity 81    
Minimum Humidity 49    
Precipitation  
Precipitation T in 0.11 in 2.99 in (1958)
Month to date precipitation 1.30 3.28  
Year to date precipitation 7.04 8.07  
Snow  
Snow 0.00 in 0.00 in 2.00 in (1937)
Month to date snowfall 0.0 0.2  
Since 1 July snowfall 0.8 1.6  
Snow Depth 0.00 in    
Sea Level Pressure  
Sea Level Pressure 30.10 in    
Wind  
Wind Speed 16 mph (South)    
Max Wind Speed 24 mph    
Max Gust Speed 32 mph    
Visibility 10 miles    
Events Rain    
T = Trace of Precipitation, MM = Missing Value Source: NWS Daily Summary

Daily Weather History Graph

Daily Weather History Graph

Search for Another Location

Airport or City:

Trip Planner

Search our weather history database for the weather conditions in past years. The results will help you decide how hot, cold, wet, or windy it might be!

Date:

Astronomy

Mar. 29, 2013 Rise Set
Actual Time 7:19 AM CDT 7:46 PM CDT
Civil Twilight 6:54 AM CDT 8:11 PM CDT
Nautical Twilight 6:25 AM CDT 8:40 PM CDT
Astronomical Twilight 5:56 AM CDT 9:09 PM CDT
Moon 10:36 PM CDT (3/29) 8:38 AM CDT (3/29)
Length of Visible Light 13h 16m
Length of Day
12h 26m
Waning Gibbous, 93% of the Moon is Illuminated
Mar 29
Waning Gibbous
Apr 2
Last Quarter
Apr 10
New
Apr 18
First Quarter
Apr 25
Full

Hourly Weather History & Observations

Time (CDT) Temp. Dew Point Humidity Pressure Visibility Wind Dir Wind Speed Gust Speed Precip Events Conditions
12:53 AM 66.0 °F 55.0 °F 68% 30.11 in 10.0 mi South 13.8 mph - N/A   Mostly Cloudy
1:53 AM 64.9 °F 55.9 °F 73% 30.10 in 10.0 mi South 18.4 mph - N/A   Mostly Cloudy
2:53 AM 64.0 °F 55.0 °F 73% 30.10 in 10.0 mi South 16.1 mph - N/A   Mostly Cloudy
3:53 AM 63.0 °F 55.0 °F 75% 30.10 in 10.0 mi South 13.8 mph - N/A   Mostly Cloudy
4:53 AM 63.0 °F 55.0 °F 75% 30.09 in 10.0 mi South 15.0 mph 24.2 mph N/A   Mostly Cloudy
5:37 AM 62.1 °F 55.0 °F 78% 30.11 in 10.0 mi South 15.0 mph - N/A   Mostly Cloudy
5:53 AM 62.1 °F 55.0 °F 78% 30.10 in 10.0 mi South 18.4 mph - N/A   Overcast
6:53 AM 61.0 °F 55.0 °F 81% 30.12 in 10.0 mi South 12.7 mph - N/A   Overcast
7:53 AM 60.1 °F 55.0 °F 83% 30.15 in 10.0 mi South 12.7 mph - N/A   Overcast
8:15 AM 61.0 °F 55.0 °F 81% 30.18 in 10.0 mi South 11.5 mph - N/A   Overcast
8:53 AM 61.0 °F 55.0 °F 81% 30.17 in 10.0 mi South 13.8 mph - N/A   Overcast
9:53 AM 62.6 °F 53.6 °F 72% 30.17 in 10.0 mi South 12.7 mph - N/A   Overcast
10:53 AM 64.0 °F 53.1 °F 67% 30.16 in 10.0 mi South 19.6 mph 24.2 mph N/A   Mostly Cloudy
11:53 AM 66.0 °F 54.0 °F 65% 30.15 in 10.0 mi South 19.6 mph 26.5 mph N/A   Mostly Cloudy
12:26 PM 66.9 °F 55.0 °F 66% 30.15 in 10.0 mi South 19.6 mph 24.2 mph N/A   Mostly Cloudy
12:53 PM 71.1 °F 55.0 °F 57% 30.12 in 10.0 mi South 16.1 mph 24.2 mph N/A   Mostly Cloudy
1:53 PM 73.0 °F 55.0 °F 53% 30.10 in 10.0 mi South 19.6 mph 25.3 mph N/A   Mostly Cloudy
2:53 PM 75.0 °F 55.0 °F 50% 30.07 in 10.0 mi South 19.6 mph 27.6 mph N/A   Mostly Cloudy
3:53 PM 73.9 °F 54.0 °F 50% 30.05 in 10.0 mi South 21.9 mph 27.6 mph N/A   Mostly Cloudy
4:53 PM 73.0 °F 55.0 °F 53% 30.05 in 10.0 mi South 20.7 mph - N/A   Overcast
5:53 PM 73.0 °F 55.0 °F 53% 30.04 in 10.0 mi SSE 16.1 mph - N/A   Overcast
6:53 PM 73.0 °F 55.9 °F 55% 30.04 in 10.0 mi SSE 15.0 mph - N/A   Mostly Cloudy
7:53 PM 72.0 °F 55.0 °F 55% 30.05 in 10.0 mi SSE 11.5 mph - N/A   Overcast
8:53 PM 70.0 °F 55.0 °F 59% 30.05 in 10.0 mi SSE 13.8 mph - N/A   Overcast
9:53 PM 70.0 °F 55.9 °F 61% 30.06 in 10.0 mi SE 13.8 mph - N/A   Overcast
10:53 PM 68.0 °F 57.0 °F 68% 30.02 in 10.0 mi SE 18.4 mph 28.8 mph 0.00 in Rain Light Rain
11:53 PM 68.0 °F 55.9 °F 65% 30.01 in 10.0 mi SSE 16.1 mph 25.3 mph 0.00 in   Overcast